Regional Weather Roundup
Issued by NWS

Home | Current Version | Previous Version | Text Only | Print | Product List | Glossary On
Versions: 1 2 3 4 5 6 7 8 9 10 11 12 13 14 15 16 17 18 19 20 21 22 23 24 25 26 27 28 29 30 31 32 33 34 35 36 37 38 39 40 41 42 43 44 45 46 47 48 49 50
000
ASUS43 KFSD 241002
RWRSD

WEATHER ROUNDUP FOR SOUTH DAKOTA
NATIONAL WEATHER SERVICE SIOUX FALLS SD
500 AM CDT THU APR 24 2014

NOTE: "FAIR" INDICATES FEW OR NO CLOUDS BELOW 12,000 FEET WITH NO
SIGNIFICANT WEATHER AND/OR OBSTRUCTIONS TO VISIBILITY.


SDZ001>005-009-010-012>017-241100-
NORTHWEST AND NORTH CENTRAL SOUTH DAKOTA

CITY           SKY/WX    TMP DP  RH WIND       PRES   REMARKS
BUFFALO          N/A     33  23  66 W13       29.75S WCI  24
FAITH            N/A     39  28  64 W13       29.79S
MOBRIDGE       MOCLDY    35  33  92 NW7       29.72R WCI  29
$$

SDZ012>016-024>037-041>051-057-063-072>074-241100-
SOUTHWEST AND SOUTH CENTRAL SOUTH DAKOTA

CITY           SKY/WX    TMP DP  RH WIND       PRES   REMARKS
RAPID CTY ARPT CLEAR     36  22  56 NW12      29.85S
PIERRE         CLOUDY    45  36  70 W10       29.74F
CUSTER         CLEAR     28  16  60 W6        29.87S WCI  22
ELLSWORTH AFB  CLEAR     35  21  58 W10       29.85R WCI  27
PHILIP         PTCLDY    37  31  78 W9        29.81F
PINE RIDGE     MOCLDY    39  33  79 W7        29.87S
WINNER         FAIR      47  35  63 NW13      29.74F
$$

SDZ004>011-016>023-039-040-241100-
NORTHEAST SOUTH DAKOTA

CITY           SKY/WX    TMP DP  RH WIND       PRES   REMARKS
ABERDEEN       CLOUDY    38  37  97 CALM      29.73R
WATERTOWN      CLOUDY    40  37  89 E7        29.71S
SISSETON         N/A     40  38  93 S7        29.74S
$$

SDZ017-020-022-023-036>040-048>070-241100-
SOUTHEAST SOUTH DAKOTA

CITY           SKY/WX    TMP DP  RH WIND       PRES   REMARKS
SIOUX FALLS    RAIN      46  45  96 NE3       29.66S FOG
HURON          CLOUDY    44  41  89 NW5       29.71R
CHAMBERLAIN      N/A     47  38  71 NW10      29.74R
MITCHELL       CLOUDY    46  44  93 NW7       29.70R
YANKTON        CLOUDY    48  48 100 W3        29.66S
$$

ABBREVIATIONS USED IN REMARKS
   TC - TEMPERATURE IN CELSIUS
  WCI - WIND CHILL INDEX
   HX - HEAT INDEX
  VSB - VISIBILITY




USA.gov is the U.S. government's official web portal to all federal, state and local government web resources and services.